User: anonymous   Login
Location: Santa Barbara
(34.4500°N, 119.7700°W)
Time: 05:20:46
(UTC-08:00)
Language:

Cosmos 1626 Rocket - Orbit

View from above orbital plane
View from above orbital plane
View from above satellite
View from above satellite

Ground track
Ground track

The orbit data is extracted from the following two-line orbital elements,

1 15495U 85009B   14331.70887461  .00000545  00000-0  63376-4 0  9532
2 15495 082.5237 340.7147 0021187 162.1982 197.9980 14.83366060611702
Epoch (UTC): 27 November 2014 17:00:46
Eccentricity: 0.0021187
inclination: 82.5237°
perigee height: 604 km
apogee height: 633 km
right ascension of ascending node: 340.7147°
argument of perigee: 162.1982°
revolutions per day: 14.83366060
mean anomaly at epoch: 197.9980°
orbit number at epoch: 61170

The dashed part of the orbit path shows where the satellite is in the earth's shadow,  

DLR